Cloud_Cover
99 14 25 100 27 28 11 28 26 26 21 12 0 1 3 0 0 0 0 0 1 5 5 5 10 7 6 63 33 49 99 94 86 97 61 41 81 100 78 100 82 0 0 1 0
16 15 25 11 17 21 26 18 14 21 5 0 1 4 17 17 2 0 0 0 0 0 2 4 5 5 5 16 39 95 61 48 54 13 90 32 98 23 3 4 1 0 0 0 3
22 25 25 26 26 20 0 18 0 0 0 2 5 5 19 69 22 0 0 0 0 2 5 5 5 5 26 9 5 99 83 50 20 8 12 5 4 3 6 2 0 0 0 0 5
19 21 22 28 65 21 24 26 20 0 0 3 5 5 97 31 67 36 0 0 0 5 2 5 5 9 100 99 11 81 12 60 18 0 2 42 8 5 6 2 0 0 0 0 0
16 22 99 100 100 15 8 6 4 2 5 5 40 5 5 58 95 3 4 4 9 3 4 27 100 52 100 98 9 99 89 41 6 0 16 1 13 22 1 2 3 2 0 0 0
19 20 86 100 100 14 3 62 5 5 23 5 82 99 79 100 100 42 5 8 90 5 5 6 19 3 64 81 100 4 20 26 37 28 0 6 45 0 17 0 0 0 0 0 0
17 16 19 100 100 13 17 33 89 8 14 100 100 98 77 100 100 58 30 5 5 3 3 1 3 0 3 97 0 1 98 88 30 15 74 2 100 100 0 0 0 0 0 0 0
15 0 0 15 72 6 89 100 28 0 31 74 94 8 6 38 37 5 4 5 5 5 5 5 0 0 0 0 1 38 96 16 68 3 7 0 100 100 1 0 0 0 0 1 0
19 15 14 2 1 0 2 0 0 0 0 1 7 0 5 5 7 4 1 3 5 5 0 2 0 0 1 11 33 12 100 81 93 0 13 0 86 4 1 0 0 0 0 0 0
96 12 5 5 0 0 0 0 0 31 16 0 0 4 6 4 2 1 3 3 0 0 0 0 0 20 6 82 59 77 100 63 27 45 5 5 58 61 22 0 0 0 0 0 0
87 3 5 5 5 5 13 0 0 0 0 0 0 0 0 0 0 0 0 0 0 0 0 1 5 95 100 11 5 1 5 26 4 0 0 59 11 5 67 10 0 0 0 0 0
100 71 4 3 0 1 11 4 0 0 0 0 0 0 0 0 0 0 0 0 0 0 1 18 2 60 37 0 2 5 6 98 4 0 0 5 1 18 5 5 4 4 0 0 0
88 55 3 0 4 8 0 0 0 0 0 0 0 0 0 0 0 0 0 0 0 0 4 4 98 26 0 4 5 5 48 42 3 4 8 4 38 100 18 32 5 4 0 0 0
100 100 23 5 38 0 0 0 0 0 0 0 0 0 0 0 0 0 0 0 0 0 5 5 6 6 3 5 5 7 21 0 0 5 26 15 5 60 60 16 5 13 0 0 0
100 99 61 16 0 0 0 0 0 0 0 0 0 0 0 0 0 0 0 0 0 0 0 0 2 3 0 4 5 5 44 0 5 0 5 44 97 100 16 6 5 79 73 23 0
100 97 66 0 0 0 0 0 0 0 0 0 0 0 0 0 0 0 0 0 0 0 0 0 5 0 1 4 3 0 0 0 5 5 5 23 17 1 71 13 5 5 5 0 3
88 96 36 0 0 0 0 0 0 0 0 0 0 0 0 0 0 0 0 0 0 0 0 0 0 0 0 0 0 0 0 0 4 82 88 100 4 26 0 5 2 3 0 0 0
16 69 2 0 0 0 0 0 0 0 0 0 0 0 0 0 0 0 0 0 0 0 0 0 0 0 0 0 0 0 2 5 5 32 100 83 5 51 14 0 0 0 0 0 0
26 5 5 5 5 5 2 5 5 1 0 0 0 0 0 0 0 0 0 0 0 0 0 0 0 0 0 0 0 0 0 0 1 5 5 50 52 20 23 5 3 1 0 0 0
0 0 5 5 5 5 5 10 4 5 5 5 5 3 3 2 4 0 0 5 0 0 0 2 0 0 0 0 4 5 5 5 5 5 5 17 92 100 66 5 4 2 4 0 0
0 0 0 2 5 5 5 5 5 26 5 5 5 9 5 5 76 54 93 18 5 4 0 4 0 5 0 0 2 0 0 0 0 2 45 84 100 100 53 5 0 0 1 0 0
0 0 0 0 0 0 0 1 0 2 0 0 0 0 0 0 0 0 2 5 0 5 2 1 0 0 0 0 0 0 0 0 0 0 0 4 5 100 100 2 0 0 0 0 0
0 0 0 0 0 0 0 0 0 0 0 0 0 0 0 0 0 0 0 0 0 0 0 0 0 0 0 1 11 2 3 0 2 5 5 41 71 100 98 8 0 0 0 0 0
0 0 0 0 0 0 0 0 0 0 0 0 0 0 0 0 0 0 0 0 0 0 0 0 0 0 5 100 84 58 92 2 1 2 2 35 63 7 54 100 2 0 0 0 0
0 0 0 0 0 0 0 0 0 0 0 0 0 0 0 0 0 0 0 0 0 0 0 0 0 5 5 95 63 100 71 87 90 95 100 92 79 98 92 82 70 0 0 0 0
0 0 0 0 0 0 0 0 0 0 0 0 0 0 0 0 0 0 0 0 0 0 0 0 0 0 5 5 74 37 79 100 100 53 0 86 50 100 100 93 39 24 1 0 0
0 0 0 0 0 0 0 0 0 0 0 0 0 0 0 0 0 0 0 0 0 0 0 0 3 98 17 46 100 100 30 99 100 86 98 5 91 100 72 100 100 93 98 2 0